TimeCDT,TemperatureF,Dew PointF,Humidity,Sea Level PressureIn,VisibilityMPH,Wind Direction,Wind SpeedMPH,Gust SpeedMPH,PrecipitationIn,Events,Conditions,WindDirDegrees,DateUTC
12:53 AM,72.0,61.0,68,29.74,10.0,WSW,3.5,-,N/A,,Clear,240,2013-06-29 05:53:00
1:53 AM,72.0,61.0,68,29.73,10.0,West,5.8,-,N/A,,Clear,270,2013-06-29 06:53:00
2:53 AM,72.0,61.0,68,29.72,10.0,West,5.8,-,N/A,,Clear,270,2013-06-29 07:53:00
3:53 AM,72.0,60.1,66,29.70,10.0,West,9.2,-,N/A,,Clear,280,2013-06-29 08:53:00
4:53 AM,70.0,60.1,71,29.71,10.0,WNW,8.1,-,N/A,,Clear,300,2013-06-29 09:53:00
5:53 AM,69.1,60.1,73,29.72,10.0,WNW,8.1,-,N/A,,Clear,300,2013-06-29 10:53:00
6:53 AM,71.1,60.1,68,29.72,10.0,WNW,9.2,-,N/A,,Clear,300,2013-06-29 11:53:00
7:53 AM,73.9,60.1,62,29.72,10.0,WNW,10.4,-,N/A,,Clear,300,2013-06-29 12:53:00
8:53 AM,78.1,61.0,56,29.73,10.0,WNW,10.4,-,N/A,,Clear,300,2013-06-29 13:53:00
9:53 AM,82.0,61.0,49,29.71,10.0,NW,10.4,-,N/A,,Clear,320,2013-06-29 14:53:00
10:53 AM,84.0,61.0,46,29.71,10.0,NW,13.8,21.9,N/A,,Clear,320,2013-06-29 15:53:00
11:53 AM,86.0,60.1,41,29.70,10.0,NW,18.4,25.3,N/A,,Clear,310,2013-06-29 16:53:00
12:53 PM,87.1,59.0,39,29.70,10.0,NW,10.4,19.6,N/A,,Partly Cloudy,310,2013-06-29 17:53:00
1:53 PM,88.0,57.0,35,29.69,10.0,NW,18.4,26.5,N/A,,Partly Cloudy,310,2013-06-29 18:53:00
2:53 PM,89.1,57.9,35,29.68,10.0,NW,15.0,23.0,N/A,,Clear,320,2013-06-29 19:53:00
3:53 PM,88.0,57.9,36,29.67,10.0,NW,12.7,21.9,N/A,,Clear,310,2013-06-29 20:53:00
4:53 PM,88.0,55.9,34,29.66,10.0,West,13.8,21.9,N/A,,Clear,280,2013-06-29 21:53:00
5:53 PM,87.1,57.9,37,29.66,10.0,NW,9.2,-,N/A,,Clear,310,2013-06-29 22:53:00
6:53 PM,84.0,57.9,41,29.67,10.0,NW,8.1,-,N/A,,Partly Cloudy,320,2013-06-29 23:53:00
7:01 PM,78.8,55.4,44,29.70,10.0,North,21.9,31.1,N/A,Thunderstorm,Mostly Cloudy,360,2013-06-30 00:01:00
7:16 PM,69.8,60.8,73,29.73,10.0,NNW,21.9,31.1,0.00,Rain,Light Rain,340,2013-06-30 00:16:00
7:23 PM,68.0,62.6,83,29.73,3.0,North,23.0,31.1,0.00,Rain-Thunderstorm,Thunderstorms and Rain,350,2013-06-30 00:23:00
7:46 PM,68.0,62.6,83,29.73,7.0,North,9.2,-,0.05,Rain,Light Rain,360,2013-06-30 00:46:00
7:53 PM,68.0,62.1,81,29.72,7.0,North,10.4,-,0.06,Rain,Light Rain,360,2013-06-30 00:53:00
8:53 PM,68.0,62.1,81,29.70,10.0,NW,5.8,-,0.02,,Mostly Cloudy,310,2013-06-30 01:53:00
9:53 PM,68.0,62.1,81,29.71,10.0,West,6.9,-,0.00,Rain,Light Rain,280,2013-06-30 02:53:00
10:53 PM,68.0,63.0,84,29.71,10.0,WNW,5.8,-,0.00,,Partly Cloudy,290,2013-06-30 03:53:00
11:53 PM,66.9,63.0,87,29.72,10.0,NW,6.9,-,N/A,,Partly Cloudy,310,2013-06-30 04:53:00